TimePDT,TemperatureF,Dew PointF,Humidity,Sea Level PressureIn,VisibilityMPH,Wind Direction,Wind SpeedMPH,Gust SpeedMPH,PrecipitationIn,Events,Conditions,WindDirDegrees,DateUTC
12:32 AM,41.0,39.2,93,29.94,1.5,NNW,4.6,-,N/A,,Partly Cloudy,340,2013-04-20 07:32:00
12:40 AM,39.2,37.4,93,29.94,0.5,North,6.9,-,N/A,Fog,Fog,360,2013-04-20 07:40:00
12:45 AM,39.2,39.2,100,29.94,1.0,North,3.5,-,N/A,,Mist,10,2013-04-20 07:45:00
12:53 AM,39.9,39.0,97,29.97,1.0,North,3.5,-,N/A,,Mist,10,2013-04-20 07:53:00
1:01 AM,37.4,37.4,100,29.95,0.5,NE,4.6,-,N/A,Fog,Fog,50,2013-04-20 08:01:00
1:09 AM,39.2,39.2,100,29.95,1.2,ENE,4.6,-,N/A,,Scattered Clouds,70,2013-04-20 08:09:00
1:12 AM,39.2,39.2,100,29.95,3.0,East,4.6,-,N/A,,Partly Cloudy,100,2013-04-20 08:12:00
1:53 AM,39.9,39.0,97,29.97,10.0,SSE,4.6,-,N/A,,Clear,150,2013-04-20 08:53:00
2:43 AM,37.4,37.4,100,29.97,2.0,West,4.6,-,N/A,,Mostly Cloudy,280,2013-04-20 09:43:00
2:47 AM,37.4,35.6,93,29.97,0.8,West,3.5,-,N/A,,Overcast,270,2013-04-20 09:47:00
2:53 AM,37.9,37.0,97,29.99,0.2,West,3.5,-,N/A,Fog,Fog,260,2013-04-20 09:53:00
3:21 AM,35.6,35.6,100,29.97,2.5,Calm,Calm,-,N/A,,Overcast,0,2013-04-20 10:21:00
3:28 AM,35.6,35.6,100,29.98,6.0,Calm,Calm,-,N/A,,Mostly Cloudy,0,2013-04-20 10:28:00
3:42 AM,35.6,33.8,93,29.98,1.5,Calm,Calm,-,N/A,,Partly Cloudy,0,2013-04-20 10:42:00
3:53 AM,36.0,35.1,97,30.00,5.0,SE,3.5,-,N/A,,Partly Cloudy,140,2013-04-20 10:53:00
4:53 AM,35.1,34.0,96,30.03,10.0,SSE,5.8,-,N/A,,Clear,160,2013-04-20 11:53:00
5:53 AM,36.0,34.0,93,30.04,10.0,South,6.9,-,N/A,,Overcast,170,2013-04-20 12:53:00
6:53 AM,37.9,36.0,93,30.06,10.0,SSE,5.8,-,N/A,,Overcast,150,2013-04-20 13:53:00
7:53 AM,39.9,37.0,89,30.08,10.0,SSE,8.1,-,N/A,,Overcast,160,2013-04-20 14:53:00
8:53 AM,41.0,37.9,89,30.08,10.0,South,10.4,-,N/A,,Overcast,170,2013-04-20 15:53:00
9:37 AM,42.8,37.4,81,30.06,10.0,South,11.5,-,N/A,,Mostly Cloudy,170,2013-04-20 16:37:00
9:53 AM,44.1,39.0,82,30.08,10.0,South,11.5,-,N/A,,Overcast,180,2013-04-20 16:53:00
10:04 AM,44.6,37.4,76,30.06,10.0,South,10.4,-,N/A,,Overcast,170,2013-04-20 17:04:00
10:20 AM,44.6,37.4,76,30.06,10.0,South,11.5,-,N/A,,Overcast,170,2013-04-20 17:20:00
10:53 AM,48.0,39.0,71,30.08,10.0,South,8.1,-,N/A,,Overcast,180,2013-04-20 17:53:00
11:53 AM,55.0,39.9,57,30.04,10.0,South,11.5,-,N/A,,Scattered Clouds,190,2013-04-20 18:53:00
12:53 PM,57.0,36.0,45,30.02,10.0,SSW,19.6,25.3,N/A,,Mostly Cloudy,200,2013-04-20 19:53:00
1:53 PM,59.0,35.1,41,30.00,10.0,WSW,19.6,29.9,N/A,,Mostly Cloudy,240,2013-04-20 20:53:00
2:53 PM,57.9,32.0,37,29.99,10.0,SW,13.8,24.2,N/A,,Overcast,230,2013-04-20 21:53:00
3:53 PM,59.0,30.9,35,29.97,10.0,WSW,19.6,31.1,N/A,,Overcast,240,2013-04-20 22:53:00
4:53 PM,61.0,30.0,31,29.96,10.0,SW,26.5,34.5,N/A,,Overcast,230,2013-04-20 23:53:00
5:53 PM,57.9,30.0,35,29.96,10.0,SW,17.3,24.2,N/A,,Mostly Cloudy,230,2013-04-21 00:53:00
6:53 PM,57.0,30.0,36,29.96,10.0,WSW,15.0,-,N/A,,Overcast,240,2013-04-21 01:53:00
7:53 PM,55.0,30.9,40,29.97,10.0,WSW,11.5,-,N/A,,Overcast,240,2013-04-21 02:53:00
8:53 PM,53.1,30.9,43,30.00,10.0,West,5.8,-,N/A,,Overcast,270,2013-04-21 03:53:00
9:53 PM,48.0,35.1,61,30.04,10.0,NNE,3.5,-,N/A,,Mostly Cloudy,30,2013-04-21 04:53:00
10:53 PM,41.0,35.1,79,30.05,10.0,NW,5.8,-,N/A,,Mostly Cloudy,310,2013-04-21 05:53:00
11:53 PM,41.0,36.0,82,30.05,10.0,NNW,3.5,-,N/A,,Overcast,330,2013-04-21 06:53:00